When you browse on this site, cookies collect data to enhance your experience and personalize the content and advertising you see.
Visit our Privacy Policy to learn more. By continuing to use the site, you agree to this use of cookies and data.
  • In Latvia
  • List of Countries
  • For 7 days
  • Water Temperature
  • Weather Map
  • Weather Widgets
  • user-avatar
    Login

    Hourly Weather Byki

    Today, 24 February, Monday

    Time Temperature Precipitation Wind Pressure Humidity
    00:00 +2°C° 0.4 mm 6 mps 732 mmHg 94%
    01:00 +1°C° 0.4 mm 9 mps 733 mmHg 94%
    02:00 +1°C° 0.6 mm 10 mps 734 mmHg 88%
    03:00 +1°C° 0.6 mm 10 mps 736 mmHg 82%
    04:00 0°C° 0.6 mm 10 mps 737 mmHg 76%
    05:00 0°C° 0 mm 10 mps 738 mmHg 75%
    06:00 0°C° 0 mm 10 mps 740 mmHg 74%
    07:00 0°C° 0 mm 9 mps 741 mmHg 73%
    08:00 0°C° 0 mm 9 mps 741 mmHg 73%
    09:00 +1°C° 0 mm 9 mps 742 mmHg 73%
    10:00 +1°C° 0 mm 9 mps 743 mmHg 73%
    11:00 +1°C° 0 mm 8 mps 743 mmHg 73%
    12:00 +1°C° 0 mm 8 mps 743 mmHg 73%
    13:00 +3°C° 0 mm 7 mps 744 mmHg 73%
    14:00 +3°C° 0 mm 6 mps 744 mmHg 72%
    15:00 +3°C° 0 mm 6 mps 744 mmHg 71%
    16:00 +3°C° 0 mm 5 mps 743 mmHg 70%
    17:00 +4°C° 0 mm 4 mps 743 mmHg 72%
    18:00 +3°C° 0 mm 4 mps 743 mmHg 74%
    19:00 +3°C° 0 mm 4 mps 743 mmHg 77%
    20:00 +3°C° 0 mm 4 mps 742 mmHg 77%
    21:00 +1°C° 0 mm 4 mps 742 mmHg 78%
    22:00 +1°C° 0 mm 4 mps 741 mmHg 78%
    23:00 +1°C° 0.2 mm 4 mps 740 mmHg 83%

    Tomorrow, 25 February, Tuesday

    Time Temperature Precipitation Wind Pressure Humidity
    00:00 0°C° 0.2 mm 5 mps 739 mmHg 88%
    01:00 -1°C° 0.2 mm 6 mps 738 mmHg 92%
    02:00 +1°C° 1.5 mm 6 mps 736 mmHg 91%
    03:00 +1°C° 1.5 mm 6 mps 735 mmHg 90%
    04:00 +2°C° 1.5 mm 7 mps 733 mmHg 89%
    05:00 +3°C° 0.7 mm 7 mps 733 mmHg 89%
    06:00 +4°C° 0.7 mm 7 mps 733 mmHg 90%
    07:00 +5°C° 0.7 mm 8 mps 732 mmHg 90%
    08:00 +6°C° 0.1 mm 8 mps 732 mmHg 87%
    09:00 +6°C° 0.1 mm 8 mps 732 mmHg 85%
    10:00 +7°C° 0.1 mm 8 mps 732 mmHg 82%
    11:00 +8°C° 0.1 mm 7 mps 732 mmHg 79%
    12:00 +8°C° 0.1 mm 7 mps 732 mmHg 77%
    13:00 +8°C° 0.1 mm 7 mps 731 mmHg 74%
    14:00 +8°C° 0.1 mm 6 mps 731 mmHg 73%
    15:00 +9°C° 0.1 mm 5 mps 730 mmHg 71%
    16:00 +10°C° 0.1 mm 4 mps 730 mmHg 69%
    17:00 +8°C° 0.9 mm 5 mps 730 mmHg 75%
    18:00 +7°C° 0.9 mm 5 mps 730 mmHg 80%
    19:00 +5°C° 0.9 mm 6 mps 730 mmHg 85%
    20:00 +5°C° 0.3 mm 5 mps 730 mmHg 82%
    21:00 +5°C° 0.3 mm 4 mps 730 mmHg 78%
    22:00 +5°C° 0.3 mm 4 mps 730 mmHg 74%
    23:00 +4°C° 0 mm 4 mps 730 mmHg 74%

    Day after tomorrow, 26 February, Wednesday

    Time Temperature Precipitation Wind Pressure Humidity
    00:00 +3°C° 0 mm 4 mps 730 mmHg 75%
    01:00 +3°C° 0 mm 4 mps 730 mmHg 75%
    02:00 +1°C° 0 mm 4 mps 730 mmHg 77%
    03:00 +1°C° 0 mm 4 mps 729 mmHg 79%
    04:00 0°C° 0 mm 4 mps 729 mmHg 80%
    05:00 0°C° 0 mm 4 mps 729 mmHg 80%
    06:00 0°C° 0 mm 4 mps 729 mmHg 79%
    07:00 0°C° 0 mm 4 mps 729 mmHg 78%
    08:00 +1°C° 0 mm 4 mps 728 mmHg 73%
    09:00 +3°C° 0 mm 4 mps 728 mmHg 68%
    10:00 +5°C° 0 mm 5 mps 728 mmHg 63%
    11:00 +5°C° 0 mm 5 mps 728 mmHg 63%
    12:00 +5°C° 0 mm 5 mps 728 mmHg 63%
    13:00 +6°C° 0 mm 5 mps 728 mmHg 63%
    14:00 +6°C° 0 mm 5 mps 728 mmHg 64%
    15:00 +5°C° 0 mm 4 mps 728 mmHg 65%
    16:00 +5°C° 0 mm 4 mps 728 mmHg 66%
    17:00 +4°C° 0 mm 4 mps 728 mmHg 68%
    18:00 +2°C° 0 mm 5 mps 728 mmHg 70%
    19:00 +1°C° 0 mm 5 mps 729 mmHg 72%
    20:00 +1°C° 0 mm 5 mps 729 mmHg 74%
    21:00 -1°C° 0 mm 6 mps 729 mmHg 77%
    22:00 -1°C° 0 mm 6 mps 730 mmHg 79%
    23:00 0°C° 0 mm 5 mps 730 mmHg 81%

    27 February, Thursday

    Time Temperature Precipitation Wind Pressure Humidity
    00:00 -1°C° 0 mm 5 mps 730 mmHg 82%
    01:00 -1°C° 0 mm 5 mps 731 mmHg 84%
    02:00 -1°C° 0.1 mm 5 mps 731 mmHg 87%
    03:00 -1°C° 0.1 mm 5 mps 731 mmHg 90%
    04:00 -2°C° 0.1 mm 5 mps 731 mmHg 93%
    05:00 -2°C° 0.2 mm 5 mps 732 mmHg 92%
    06:00 -1°C° 0.2 mm 5 mps 733 mmHg 91%
    07:00 -1°C° 0.2 mm 5 mps 733 mmHg 90%
    08:00 -1°C° 0.1 mm 5 mps 734 mmHg 84%
    09:00 0°C° 0.1 mm 5 mps 734 mmHg 78%
    10:00 -1°C° 0.1 mm 6 mps 735 mmHg 73%
    11:00 -1°C° 0.1 mm 6 mps 735 mmHg 70%
    12:00 +1°C° 0.1 mm 5 mps 735 mmHg 66%
    13:00 +1°C° 0.1 mm 5 mps 736 mmHg 63%
    14:00 +1°C° 0.3 mm 5 mps 736 mmHg 68%
    15:00 -1°C° 0.3 mm 6 mps 736 mmHg 74%
    16:00 -1°C° 0.3 mm 6 mps 736 mmHg 79%
    17:00 -1°C° 0.1 mm 5 mps 736 mmHg 80%
    18:00 -1°C° 0.1 mm 4 mps 737 mmHg 81%
    19:00 -1°C° 0.1 mm 3 mps 737 mmHg 82%
    20:00 -1°C° 0 mm 3 mps 737 mmHg 83%
    21:00 -1°C° 0 mm 2 mps 737 mmHg 85%
    22:00 -2°C° 0 mm 2 mps 737 mmHg 86%
    23:00 -2°C° 0 mm 2 mps 737 mmHg 86%

    28 February, Friday

    Time Temperature Precipitation Wind Pressure Humidity
    00:00 -2°C° 0 mm 2 mps 737 mmHg 86%
    01:00 -2°C° 0 mm 2 mps 736 mmHg 86%
    02:00 -2°C° 0 mm 2 mps 736 mmHg 86%
    03:00 -2°C° 0 mm 2 mps 735 mmHg 86%
    04:00 -2°C° 0 mm 2 mps 735 mmHg 86%
    05:00 -2°C° 0 mm 3 mps 734 mmHg 85%
    06:00 -2°C° 0 mm 3 mps 734 mmHg 84%
    07:00 -2°C° 0 mm 4 mps 733 mmHg 83%
    08:00 -2°C° 0.1 mm 5 mps 732 mmHg 83%
    09:00 -2°C° 0.1 mm 6 mps 730 mmHg 84%
    10:00 -2°C° 0.1 mm 7 mps 729 mmHg 85%
    11:00 -2°C° 0.9 mm 7 mps 729 mmHg 88%
    12:00 -1°C° 0.9 mm 7 mps 728 mmHg 91%
    13:00 -1°C° 0.9 mm 8 mps 727 mmHg 94%
    14:00 -1°C° 0.2 mm 8 mps 727 mmHg 90%
    15:00 0°C° 0.2 mm 8 mps 727 mmHg 87%
    16:00 0°C° 0.2 mm 8 mps 727 mmHg 84%
    17:00 0°C° 0.4 mm 8 mps 727 mmHg 88%
    18:00 -1°C° 0.4 mm 9 mps 728 mmHg 92%
    19:00 -1°C° 0.4 mm 9 mps 728 mmHg 96%
    20:00 -1°C° 0.4 mm 9 mps 728 mmHg 95%
    21:00 -1°C° 0.4 mm 9 mps 729 mmHg 95%
    22:00 -1°C° 0.4 mm 8 mps 730 mmHg 94%
    23:00 -2°C° 0.1 mm 7 mps 730 mmHg 93%

    29 February, Saturday

    Time Temperature Precipitation Wind Pressure Humidity
    00:00 -2°C° 0.1 mm 6 mps 731 mmHg 92%
    01:00 -2°C° 0.1 mm 5 mps 732 mmHg 91%
    02:00 -2°C° 0 mm 4 mps 732 mmHg 91%
    03:00 -1°C° 0 mm 3 mps 732 mmHg 92%
    04:00 0°C° 0 mm 1 mps 733 mmHg 92%
    05:00 -2°C° 0 mm 2 mps 732 mmHg 92%
    06:00 -2°C° 0 mm 2 mps 732 mmHg 92%
    07:00 -1°C° 0 mm 3 mps 732 mmHg 92%
    08:00 -1°C° 0.1 mm 3 mps 731 mmHg 90%
    09:00 -1°C° 0.1 mm 4 mps 730 mmHg 88%
    10:00 -1°C° 0.1 mm 5 mps 729 mmHg 86%
    11:00 -1°C° 1.3 mm 6 mps 728 mmHg 89%
    12:00 -1°C° 1.3 mm 6 mps 727 mmHg 92%
    13:00 0°C° 1.3 mm 7 mps 726 mmHg 94%
    14:00 +2°C° 0.2 mm 5 mps 725 mmHg 91%
    15:00 +4°C° 0.2 mm 4 mps 725 mmHg 87%
    16:00 +5°C° 0.2 mm 3 mps 724 mmHg 84%
    17:00 +5°C° 0.7 mm 4 mps 724 mmHg 84%
    18:00 +3°C° 0.7 mm 6 mps 724 mmHg 84%
    19:00 +3°C° 0.7 mm 7 mps 724 mmHg 83%
    20:00 +2°C° 0.1 mm 7 mps 724 mmHg 84%
    21:00 +1°C° 0.1 mm 8 mps 725 mmHg 84%
    22:00 0°C° 0.1 mm 8 mps 725 mmHg 84%
    23:00 -1°C° 0.1 mm 9 mps 725 mmHg 84%
    Show more